Rbgn^[z[y[W
メイン
   新天体発見情報
     Comet C/2006 A2 (Catalina)
投稿するにはまず登録を

スレッド表示 | 新しいものから 前のトピック | 次のトピック | 下へ
投稿者 スレッド
佐藤裕久
投稿日時: 2006-1-25 21:23
モデレータ
登録日: 2005-6-12
居住地: 日本
投稿: 2703
オンライン
Comet C/2006 A2 (Catalina)

外見状小惑星状の天体がCatalinaスカイサーベイによって発見された。
直ちに、NEO Confirmation Pageに掲載され、幾人かのCCD観測者によって彗星状である
ことが報告された。
4″〜12″のコマがあり、尾はない。
符号は、意図的ではないものの1月の後半最初の彗星であり間違ってつけている。
本来はC/2006 B1であろう。しかし、符号はこのままになる見込み。

発見位置は次のとおり、

     2006 UT             R.A. (2000) Decl.       Mag.
     Jan. 21.15860    3 19 54.37   +25 27 31.1   20.3

軌道要素と位置推算表は次のとおり、

Orbital elements:
    C/2006 A2 (Catalina)
T 2005 Aug. 21.7802 TT                                  MPC
q   5.596119             (2000.0)            P               Q
                   Peri.  152.2464      +0.2135371      +0.8792453
                   Node   233.2439      +0.7686286      +0.1178375
e   1.0            Incl.  147.8935      +0.6030024      -0.4615648
From 42 observations 2006 Jan. 21-24.

Ephemeris:
    C/2006 A2 (Catalina)         [Mag. = 9.5 + 5 Log Delta + 8 log r]
Date    TT    R. A. (2000) Decl.     Delta      r     Elong.  Phase  Mag.
2006 01 15    03 24.07   +26 13.5    5.134    5.696   120.4     8.6  19.1
2006 01 25    03 17.67   +25 00.4    5.318    5.710   108.7     9.4  19.2
2006 02 04    03 13.09   +23 55.6    5.515    5.725    97.3     9.8  19.3
2006 02 14    03 10.17   +22 59.5    5.718    5.740    86.4     9.9  19.4
2006 02 24    03 08.68   +22 12.0    5.920    5.757    75.7     9.6  19.4
2006 03 06    03 08.43   +21 32.3    6.115    5.774    65.5     9.0  19.5
2006 03 16    03 09.20   +20 59.3    6.297    5.792    55.5     8.1  19.6

Computer: Green

(IAUC 8662、8663、MPEC 2006-B48)
スレッド表示 | 新しいものから 前のトピック | 次のトピック | トップ

投稿するにはまず登録を
 
© 1999 Tsutomu Seki.